Time,TemperatureF,DewpointF,PressureIn,WindDirection,WindDirectionDegrees,WindSpeedMPH,WindSpeedGustMPH,Humidity,HourlyPrecipIn,Conditions,Clouds,dailyrainin,SoftwareType,DateUTC
2013-09-16 00:00:00,47.5,45.6,29.91,SSE,167,0.0,0.0,93,0.01,,---,0.00,VWS V14.01,2013-09-16 06:00:00,
2013-09-16 00:10:00,47.4,45.5,29.89,SSE,167,0.0,0.0,93,0.01,,---,0.00,VWS V14.01,2013-09-16 06:10:00,
2013-09-16 00:20:00,47.2,45.6,29.89,SSE,167,0.0,0.0,94,0.00,,---,0.00,VWS V14.01,2013-09-16 06:20:00,
2013-09-16 00:30:00,46.7,45.1,29.89,SSE,167,0.0,0.0,94,0.00,,---,0.00,VWS V14.01,2013-09-16 06:30:00,
2013-09-16 00:40:00,46.6,45.0,29.89,SSE,167,0.0,0.0,94,0.00,,---,0.00,VWS V14.01,2013-09-16 06:40:00,
2013-09-16 00:50:00,46.4,44.8,29.89,SSE,167,0.0,0.0,94,0.00,,---,0.00,VWS V14.01,2013-09-16 06:50:00,
2013-09-16 01:00:00,46.5,44.9,29.89,SSE,167,0.0,0.0,94,0.00,,---,0.00,VWS V14.01,2013-09-16 07:00:00,
2013-09-16 01:10:00,46.4,44.8,29.91,SSE,167,0.0,0.0,94,0.00,,---,0.00,VWS V14.01,2013-09-16 07:10:00,
2013-09-16 01:20:00,46.5,44.9,29.89,SSE,167,0.0,0.0,94,0.00,,---,0.00,VWS V14.01,2013-09-16 07:20:00,
2013-09-16 01:30:00,46.6,45.0,29.89,SSE,167,0.0,0.0,94,0.00,,---,0.00,VWS V14.01,2013-09-16 07:30:00,
2013-09-16 01:40:00,46.7,45.1,29.89,SSE,167,0.0,0.0,94,0.00,,---,0.00,VWS V14.01,2013-09-16 07:40:00,
2013-09-16 01:50:00,46.8,45.2,29.89,SSE,167,0.0,0.0,94,0.00,,---,0.00,VWS V14.01,2013-09-16 07:50:00,
2013-09-16 02:00:00,47.0,45.4,29.88,SSE,167,0.0,0.0,94,0.00,,---,0.00,VWS V14.01,2013-09-16 08:00:00,
2013-09-16 02:10:00,47.0,45.4,29.88,SSE,167,0.0,0.0,94,0.00,,---,0.00,VWS V14.01,2013-09-16 08:10:00,
2013-09-16 02:20:00,47.1,45.2,29.88,SSE,167,0.0,0.0,93,0.00,,---,0.00,VWS V14.01,2013-09-16 08:20:00,
2013-09-16 02:30:00,47.3,45.7,29.88,SSE,167,0.0,0.0,94,0.00,,---,0.00,VWS V14.01,2013-09-16 08:30:00,
2013-09-16 02:40:00,47.4,45.8,29.88,SSE,167,0.0,0.0,94,0.00,,---,0.00,VWS V14.01,2013-09-16 08:40:00,
2013-09-16 02:50:00,47.4,45.8,29.88,SSE,167,0.0,0.0,94,0.00,,---,0.00,VWS V14.01,2013-09-16 08:50:00,
2013-09-16 03:00:00,47.3,45.7,29.87,SSE,167,0.0,0.0,94,0.00,,---,0.00,VWS V14.01,2013-09-16 09:00:00,
2013-09-16 03:10:00,47.4,46.0,29.94,SSE,167,0.0,0.0,95,0.00,,---,0.00,VWS V14.01,2013-09-16 09:10:00,
2013-09-16 03:20:00,47.5,46.1,29.94,SSE,167,0.0,0.0,95,0.00,,---,0.00,VWS V14.01,2013-09-16 09:20:00,
2013-09-16 03:30:00,47.4,46.0,29.93,SSE,167,0.0,0.0,95,0.00,,---,0.00,VWS V14.01,2013-09-16 09:30:00,
2013-09-16 03:40:00,47.1,45.5,29.93,SSE,167,0.0,0.0,94,0.00,,---,0.00,VWS V14.01,2013-09-16 09:40:00,
2013-09-16 03:50:00,45.6,43.7,29.94,SSE,167,0.0,2.0,93,0.00,,---,0.00,VWS V14.01,2013-09-16 09:50:00,
2013-09-16 04:00:00,45.5,43.9,29.94,SSE,167,0.0,0.0,94,0.00,,---,0.00,VWS V14.01,2013-09-16 10:00:00,
2013-09-16 04:10:00,45.4,43.8,29.97,SSE,167,0.0,0.0,94,0.00,,---,0.00,VWS V14.01,2013-09-16 10:10:00,
2013-09-16 04:20:00,45.5,43.9,29.95,SSE,167,0.0,0.0,94,0.00,,---,0.00,VWS V14.01,2013-09-16 10:20:00,
2013-09-16 04:30:00,45.8,43.9,29.95,SSE,167,0.0,0.0,93,0.00,,---,0.00,VWS V14.01,2013-09-16 10:30:00,
2013-09-16 04:40:00,45.9,44.0,29.95,SSE,167,0.0,0.0,93,0.00,,---,0.00,VWS V14.01,2013-09-16 10:40:00,
2013-09-16 04:50:00,46.2,44.3,29.95,SSE,167,0.0,0.0,93,0.00,,---,0.00,VWS V14.01,2013-09-16 10:50:00,
2013-09-16 05:00:00,46.2,44.6,29.95,SSE,167,0.0,0.0,94,0.00,,---,0.00,VWS V14.01,2013-09-16 11:00:00,
2013-09-16 05:10:00,45.8,44.2,29.95,SSE,167,0.0,1.0,94,0.00,,---,0.00,VWS V14.01,2013-09-16 11:10:00,
2013-09-16 05:20:00,46.1,44.5,29.95,SSE,167,0.0,0.0,94,0.00,,---,0.00,VWS V14.01,2013-09-16 11:20:00,
2013-09-16 05:30:00,46.3,44.7,29.94,SSE,167,0.0,0.0,94,0.00,,---,0.00,VWS V14.01,2013-09-16 11:30:00,
2013-09-16 05:40:00,46.1,44.5,29.94,SSE,167,0.0,0.0,94,0.00,,---,0.00,VWS V14.01,2013-09-16 11:40:00,
2013-09-16 05:50:00,46.0,44.4,29.95,SSE,167,0.0,0.0,94,0.00,,---,0.00,VWS V14.01,2013-09-16 11:50:00,
2013-09-16 06:00:00,46.1,44.2,29.94,SSE,167,0.0,3.0,93,0.00,,---,0.00,VWS V14.01,2013-09-16 12:00:00,
2013-09-16 06:10:00,46.2,44.3,29.95,SSE,167,0.0,0.0,93,0.00,,---,0.00,VWS V14.01,2013-09-16 12:10:00,
2013-09-16 06:20:00,46.1,44.2,29.95,SSE,167,0.0,0.0,93,0.00,,---,0.00,VWS V14.01,2013-09-16 12:20:00,
2013-09-16 06:30:00,45.6,43.7,29.95,SSE,167,0.0,0.0,93,0.00,,---,0.00,VWS V14.01,2013-09-16 12:30:00,
2013-09-16 06:40:00,45.1,42.9,29.96,SSE,167,0.0,2.0,92,0.00,,---,0.00,VWS V14.01,2013-09-16 12:40:00,
2013-09-16 06:50:00,45.0,43.1,29.97,SSE,167,3.0,3.0,93,0.00,,---,0.00,VWS V14.01,2013-09-16 12:50:00,
2013-09-16 07:00:00,45.0,43.1,29.97,SSE,167,0.0,4.0,93,0.00,,---,0.00,VWS V14.01,2013-09-16 13:00:00,
2013-09-16 07:10:00,45.2,43.3,29.99,SSE,167,0.0,0.0,93,0.00,,---,0.00,VWS V14.01,2013-09-16 13:10:00,
2013-09-16 07:20:00,45.5,43.6,29.97,SSE,167,0.0,0.0,93,0.00,,---,0.00,VWS V14.01,2013-09-16 13:20:00,
2013-09-16 07:30:00,46.5,44.6,29.97,SSE,167,0.0,0.0,93,0.00,,---,0.00,VWS V14.01,2013-09-16 13:30:00,
2013-09-16 07:40:00,48.0,45.8,29.95,SSE,167,0.0,0.0,92,0.00,,---,0.00,VWS V14.01,2013-09-16 13:40:00,
2013-09-16 07:50:00,48.3,44.3,29.96,SSE,167,0.0,0.0,86,0.00,,---,0.00,VWS V14.01,2013-09-16 13:50:00,
2013-09-16 08:00:00,47.6,43.9,29.95,SSE,167,0.0,0.0,87,0.00,,---,0.00,VWS V14.01,2013-09-16 14:00:00,
2013-09-16 08:10:00,49.3,45.6,29.97,SSE,167,0.0,0.0,87,0.00,,---,0.00,VWS V14.01,2013-09-16 14:10:00,
2013-09-16 08:20:00,51.3,46.6,29.95,SSE,167,0.0,0.0,84,0.00,,---,0.00,VWS V14.01,2013-09-16 14:20:00,
2013-09-16 08:30:00,51.6,46.0,29.95,SSE,167,0.0,0.0,81,0.00,,---,0.00,VWS V14.01,2013-09-16 14:30:00,
2013-09-16 08:40:00,52.3,45.7,29.95,SSE,167,0.0,0.0,78,0.00,,---,0.00,VWS V14.01,2013-09-16 14:40:00,
2013-09-16 08:50:00,52.3,44.6,29.95,SSE,167,0.0,0.0,75,0.00,,---,0.00,VWS V14.01,2013-09-16 14:50:00,
2013-09-16 09:00:00,52.8,44.8,29.95,South,183,0.0,0.0,74,0.00,,---,0.00,VWS V14.01,2013-09-16 15:00:00,
2013-09-16 09:02:00,52.8,44.8,29.95,South,183,0.0,0.0,74,0.00,,---,0.00,VWS V14.01,2013-09-16 15:02:00,
2013-09-16 09:10:00,52.9,45.5,29.95,South,183,0.0,0.0,76,0.00,,---,0.00,VWS V14.01,2013-09-16 15:10:00,
2013-09-16 09:20:00,53.4,45.7,29.95,South,176,0.0,4.0,75,0.00,,---,0.00,VWS V14.01,2013-09-16 15:20:00,
2013-09-16 09:30:00,53.8,45.0,29.94,South,176,0.0,5.0,72,0.00,,---,0.00,VWS V14.01,2013-09-16 15:30:00,
2013-09-16 09:40:00,54.1,44.9,29.94,South,176,0.0,0.0,71,0.00,,---,0.00,VWS V14.01,2013-09-16 15:40:00,
2013-09-16 09:50:00,54.3,45.5,29.94,South,176,0.0,4.0,72,0.00,,---,0.00,VWS V14.01,2013-09-16 15:50:00,
2013-09-16 10:00:00,53.4,45.0,29.94,South,176,0.0,5.0,73,0.00,,---,0.00,VWS V14.01,2013-09-16 16:00:00,
2013-09-16 10:10:00,54.9,46.1,29.94,South,176,2.0,5.0,72,0.00,,---,0.00,VWS V14.01,2013-09-16 16:10:00,
2013-09-16 10:20:00,54.4,45.2,29.94,South,176,3.0,4.0,71,0.00,,---,0.00,VWS V14.01,2013-09-16 16:20:00,
2013-09-16 10:30:00,54.5,46.4,29.94,South,176,0.0,3.0,74,0.00,,---,0.00,VWS V14.01,2013-09-16 16:30:00,
2013-09-16 10:40:00,54.6,45.8,29.93,South,176,3.0,5.0,72,0.00,,---,0.00,VWS V14.01,2013-09-16 16:40:00,
2013-09-16 10:50:00,56.4,47.1,29.92,South,171,5.0,7.0,71,0.00,,---,0.00,VWS V14.01,2013-09-16 16:50:00,
2013-09-16 11:00:00,56.8,48.2,29.91,South,181,3.0,7.0,73,0.00,,---,0.00,VWS V14.01,2013-09-16 17:00:00,
2013-09-16 11:10:00,56.2,46.9,29.92,West,265,2.0,6.0,71,0.00,,---,0.00,VWS V14.01,2013-09-16 17:10:00,
2013-09-16 11:20:00,55.3,46.8,29.93,West,268,0.0,6.0,73,0.00,,---,0.00,VWS V14.01,2013-09-16 17:20:00,
2013-09-16 11:30:00,55.6,47.5,29.91,West,264,0.0,6.0,74,0.00,,---,0.00,VWS V14.01,2013-09-16 17:30:00,
2013-09-16 11:40:00,56.2,47.7,29.90,SSE,163,0.0,8.0,73,0.00,,---,0.00,VWS V14.01,2013-09-16 17:40:00,
2013-09-16 11:50:00,56.0,47.8,29.89,SE,125,3.0,10.0,74,0.00,,---,0.00,VWS V14.01,2013-09-16 17:50:00,
2013-09-16 12:00:00,56.4,48.6,29.89,ESE,104,5.0,9.0,75,0.00,,---,0.00,VWS V14.01,2013-09-16 18:00:00,
2013-09-16 12:10:00,57.5,50.0,29.88,East,90,5.0,7.0,76,0.00,,---,0.00,VWS V14.01,2013-09-16 18:10:00,
2013-09-16 12:20:00,57.8,48.8,29.88,East,83,1.0,8.0,72,0.00,,---,0.00,VWS V14.01,2013-09-16 18:20:00,
2013-09-16 12:30:00,57.8,49.6,29.88,East,87,5.0,9.0,74,0.00,,---,0.00,VWS V14.01,2013-09-16 18:30:00,
2013-09-16 12:40:00,57.6,48.7,29.87,East,87,2.0,6.0,72,0.00,,---,0.00,VWS V14.01,2013-09-16 18:40:00,
2013-09-16 12:50:00,57.8,48.5,29.87,East,87,5.0,6.0,71,0.00,,---,0.00,VWS V14.01,2013-09-16 18:50:00,
2013-09-16 13:00:00,59.1,50.1,29.84,East,84,3.0,8.0,72,0.00,,---,0.00,VWS V14.01,2013-09-16 19:00:00,
2013-09-16 13:10:00,59.8,49.2,29.83,ESE,106,2.0,11.0,68,0.00,,---,0.00,VWS V14.01,2013-09-16 19:10:00,
2013-09-16 13:20:00,61.0,50.0,29.82,ESE,103,7.0,13.0,67,0.00,,---,0.00,VWS V14.01,2013-09-16 19:20:00,
2013-09-16 13:30:00,62.3,49.6,29.81,ESE,112,8.0,13.0,63,0.00,,---,0.00,VWS V14.01,2013-09-16 19:30:00,
2013-09-16 13:40:00,62.6,49.0,29.79,East,84,10.0,14.0,61,0.00,,---,0.00,VWS V14.01,2013-09-16 19:40:00,
2013-09-16 13:50:00,63.5,49.4,29.78,SE,128,9.0,11.0,60,0.00,,---,0.00,VWS V14.01,2013-09-16 19:50:00,
2013-09-16 14:00:00,63.4,47.5,29.78,SE,128,5.0,11.0,56,0.00,,---,0.00,VWS V14.01,2013-09-16 20:00:00,
2013-09-16 14:10:00,63.8,47.8,29.78,NE,55,6.0,10.0,56,0.00,,---,0.00,VWS V14.01,2013-09-16 20:10:00,
2013-09-16 14:20:00,63.1,47.6,29.78,ENE,61,0.0,6.0,57,0.00,,---,0.00,VWS V14.01,2013-09-16 20:20:00,
2013-09-16 14:30:00,59.6,49.4,29.81,NNE,22,5.0,13.0,69,0.00,,---,0.00,VWS V14.01,2013-09-16 20:30:00,
2013-09-16 14:40:00,59.7,49.5,29.81,NNE,20,9.0,10.0,69,0.00,,---,0.00,VWS V14.01,2013-09-16 20:40:00,
2013-09-16 14:50:00,60.7,49.7,29.79,NNE,18,3.0,9.0,67,0.00,,---,0.00,VWS V14.01,2013-09-16 20:50:00,
2013-09-16 15:00:00,61.4,49.5,29.78,NNE,19,0.0,6.0,65,0.00,,---,0.00,VWS V14.01,2013-09-16 21:00:00,
2013-09-16 15:10:00,61.2,47.7,29.79,NE,50,0.0,0.0,61,0.00,,---,0.00,VWS V14.01,2013-09-16 21:10:00,
2013-09-16 15:20:00,61.7,48.6,29.77,NE,50,0.0,0.0,62,0.00,,---,0.00,VWS V14.01,2013-09-16 21:20:00,
2013-09-16 15:30:00,64.0,46.0,29.75,NE,50,0.0,0.0,52,0.00,,---,0.00,VWS V14.01,2013-09-16 21:30:00,
2013-09-16 15:40:00,64.9,46.4,29.74,NE,53,0.0,5.0,51,0.00,,---,0.00,VWS V14.01,2013-09-16 21:40:00,
2013-09-16 15:50:00,65.3,46.7,29.74,NNE,28,0.0,5.0,51,0.00,,---,0.00,VWS V14.01,2013-09-16 21:50:00,
2013-09-16 16:00:00,64.7,46.2,29.74,NNE,17,0.0,4.0,51,0.00,,---,0.00,VWS V14.01,2013-09-16 22:00:00,
2013-09-16 16:10:00,64.0,45.0,29.75,North,11,4.0,7.0,50,0.00,,---,0.00,VWS V14.01,2013-09-16 22:10:00,
2013-09-16 16:20:00,60.9,45.1,29.78,NW,308,6.0,18.0,56,0.00,,---,0.00,VWS V14.01,2013-09-16 22:20:00,
2013-09-16 16:30:00,57.5,47.8,29.81,NW,307,12.0,22.0,70,0.01,,---,0.01,VWS V14.01,2013-09-16 22:30:00,
2013-09-16 16:40:00,55.6,47.1,29.84,WNW,291,11.0,20.0,73,0.03,,---,0.03,VWS V14.01,2013-09-16 22:40:00,
2013-09-16 16:50:00,56.3,46.3,29.84,WNW,288,4.0,15.0,69,0.03,,---,0.03,VWS V14.01,2013-09-16 22:50:00,
2013-09-16 17:00:00,57.9,48.2,29.81,WNW,287,0.0,4.0,70,0.03,,---,0.03,VWS V14.01,2013-09-16 23:00:00,
2013-09-16 17:10:00,57.3,47.2,29.83,WNW,288,0.0,0.0,69,0.03,,---,0.03,VWS V14.01,2013-09-16 23:10:00,
2013-09-16 17:20:00,57.6,48.7,29.79,West,265,0.0,0.0,72,0.03,,---,0.03,VWS V14.01,2013-09-16 23:20:00,
2013-09-16 17:30:00,57.5,51.0,29.80,West,267,0.0,0.0,79,0.03,,---,0.03,VWS V14.01,2013-09-16 23:30:00,
2013-09-16 17:40:00,58.7,51.2,29.79,West,267,0.0,0.0,76,0.02,,---,0.03,VWS V14.01,2013-09-16 23:40:00,
2013-09-16 17:50:00,60.2,51.2,29.78,West,267,0.0,0.0,72,0.00,,---,0.03,VWS V14.01,2013-09-16 23:50:00,
2013-09-16 18:00:00,60.7,48.5,29.78,West,267,2.0,4.0,64,0.00,,---,0.03,VWS V14.01,2013-09-17 00:00:00,
2013-09-16 18:10:00,61.1,48.8,29.77,West,267,0.0,4.0,64,0.00,,---,0.03,VWS V14.01,2013-09-17 00:10:00,
2013-09-16 18:20:00,61.5,48.8,29.78,West,267,0.0,0.0,63,0.00,,---,0.03,VWS V14.01,2013-09-17 00:20:00,
2013-09-16 18:30:00,61.4,48.7,29.77,West,267,0.0,0.0,63,0.00,,---,0.03,VWS V14.01,2013-09-17 00:30:00,
2013-09-16 18:40:00,60.2,48.4,29.77,West,267,0.0,0.0,65,0.00,,---,0.03,VWS V14.01,2013-09-17 00:40:00,
2013-09-16 18:50:00,58.1,49.1,29.80,West,267,0.0,0.0,72,0.00,,---,0.03,VWS V14.01,2013-09-17 00:50:00,
2013-09-16 19:00:00,56.1,48.7,29.82,West,267,0.0,0.0,76,0.00,,---,0.03,VWS V14.01,2013-09-17 01:00:00,
2013-09-16 19:10:00,54.9,47.8,29.81,West,267,0.0,0.0,77,0.00,,---,0.03,VWS V14.01,2013-09-17 01:10:00,
2013-09-16 19:20:00,53.9,47.9,29.81,West,267,0.0,0.0,80,0.00,,---,0.03,VWS V14.01,2013-09-17 01:20:00,
2013-09-16 19:30:00,53.4,47.1,29.84,West,267,0.0,0.0,79,0.00,,---,0.03,VWS V14.01,2013-09-17 01:30:00,
2013-09-16 19:40:00,53.3,46.6,29.84,West,267,0.0,0.0,78,0.00,,---,0.03,VWS V14.01,2013-09-17 01:40:00,
2013-09-16 19:50:00,53.4,46.7,29.84,West,267,0.0,0.0,78,0.00,,---,0.03,VWS V14.01,2013-09-17 01:50:00,
2013-09-16 20:00:00,52.9,46.9,29.84,West,267,0.0,0.0,80,0.00,,---,0.03,VWS V14.01,2013-09-17 02:00:00,
2013-09-16 20:10:00,52.2,46.5,29.82,West,267,0.0,0.0,81,0.00,,---,0.03,VWS V14.01,2013-09-17 02:10:00,
2013-09-16 20:20:00,51.6,46.3,29.83,West,267,0.0,0.0,82,0.00,,---,0.03,VWS V14.01,2013-09-17 02:20:00,
2013-09-16 20:30:00,50.8,45.5,29.83,West,267,0.0,0.0,82,0.00,,---,0.03,VWS V14.01,2013-09-17 02:30:00,
2013-09-16 20:40:00,50.4,45.8,29.84,West,267,0.0,0.0,84,0.00,,---,0.03,VWS V14.01,2013-09-17 02:40:00,
2013-09-16 20:50:00,50.2,44.9,29.85,West,267,0.0,0.0,82,0.00,,---,0.03,VWS V14.01,2013-09-17 02:50:00,
2013-09-16 21:00:00,50.0,44.4,29.85,West,267,0.0,0.0,81,0.00,,---,0.03,VWS V14.01,2013-09-17 03:00:00,
2013-09-16 21:10:00,50.0,44.7,29.86,West,267,0.0,0.0,82,0.00,,---,0.03,VWS V14.01,2013-09-17 03:10:00,
2013-09-16 21:20:00,49.8,44.5,29.86,West,267,0.0,0.0,82,0.00,,---,0.03,VWS V14.01,2013-09-17 03:20:00,
2013-09-16 21:30:00,49.5,44.2,29.87,West,267,0.0,0.0,82,0.00,,---,0.03,VWS V14.01,2013-09-17 03:30:00,
2013-09-16 21:40:00,49.8,43.6,29.86,West,267,0.0,0.0,79,0.00,,---,0.03,VWS V14.01,2013-09-17 03:40:00,
2013-09-16 21:50:00,49.2,43.3,29.87,West,267,0.0,0.0,80,0.00,,---,0.03,VWS V14.01,2013-09-17 03:50:00,
2013-09-16 22:00:00,48.4,42.5,29.89,West,267,0.0,0.0,80,0.00,,---,0.03,VWS V14.01,2013-09-17 04:00:00,
2013-09-16 22:10:00,48.1,42.2,29.85,West,267,0.0,0.0,80,0.00,,---,0.03,VWS V14.01,2013-09-17 04:10:00,
2013-09-16 22:20:00,48.1,42.5,29.86,West,267,0.0,0.0,81,0.00,,---,0.03,VWS V14.01,2013-09-17 04:20:00,
2013-09-16 22:30:00,47.7,42.8,29.86,West,267,0.0,0.0,83,0.00,,---,0.03,VWS V14.01,2013-09-17 04:30:00,
2013-09-16 22:40:00,46.9,42.6,29.86,West,267,0.0,0.0,85,0.00,,---,0.03,VWS V14.01,2013-09-17 04:40:00,
2013-09-16 22:50:00,46.4,42.1,29.88,West,267,0.0,0.0,85,0.00,,---,0.03,VWS V14.01,2013-09-17 04:50:00,
2013-09-16 23:00:00,46.6,42.6,29.86,West,267,0.0,0.0,86,0.00,,---,0.03,VWS V14.01,2013-09-17 05:00:00,
2013-09-16 23:10:00,47.1,42.8,29.88,West,267,0.0,0.0,85,0.00,,---,0.03,VWS V14.01,2013-09-17 05:10:00,
2013-09-16 23:20:00,46.5,41.9,29.88,West,267,0.0,0.0,84,0.00,,---,0.03,VWS V14.01,2013-09-17 05:20:00,
2013-09-16 23:30:00,46.4,41.8,29.89,West,267,0.0,0.0,84,0.00,,---,0.03,VWS V14.01,2013-09-17 05:30:00,
2013-09-16 23:40:00,46.2,42.0,29.89,West,267,0.0,0.0,85,0.00,,---,0.03,VWS V14.01,2013-09-17 05:40:00,
2013-09-16 23:50:00,47.2,42.0,29.89,West,267,0.0,0.0,82,0.00,,---,0.03,VWS V14.01,2013-09-17 05:50:00,